| time (UTC) | temp F | wind direction | speed knots | gust knots | rain 1hr in | rain 24hr in | rain mn in | humidity % | barometer mb |
| 20260509110903 | 55 | 322 | 0.9 | 1.7 | 0.00 | 0.00 | 0.00 | 83 | 1013.2 |
| 20260509110003 | 55 | 315 | 0.9 | 1.7 | 0.00 | 0.00 | 0.00 | 83 | 1013.3 |
| 20260509105403 | 55 | 311 | 0.9 | 1.7 | 0.00 | 0.00 | 0.00 | 83 | 1013.2 |
| 20260509104503 | 55 | 319 | 0.9 | 1.7 | 0.00 | 0.00 | 0.00 | 83 | 1013.2 |
| 20260509103603 | 55 | 328 | 0.9 | 1.7 | 0.00 | 0.00 | 0.00 | 82 | 1013.3 |
| 20260509102724 | 55 | 322 | 0.0 | 1.7 | 0.00 | 0.00 | 0.00 | 82 | 1013.4 |
| 20260509101803 | 55 | 326 | 0.9 | 1.7 | 0.00 | 0.00 | 0.00 | 85 | 1013.4 |
| 20260509100903 | 56 | 321 | 0.9 | 2.6 | 0.00 | 0.00 | 0.00 | 82 | 1013.5 |
| 20260509100004 | 56 | 299 | 0.9 | 1.7 | 0.00 | 0.00 | 0.00 | 82 | 1013.5 |
| 20260509095424 | 56 | 307 | 0.9 | 1.7 | 0.00 | 0.00 | 0.00 | 82 | 1013.6 |
| 20260509094503 | 56 | 333 | 0.9 | 1.7 | 0.00 | 0.00 | 0.00 | 82 | 1013.6 |
| 20260509093604 | 56 | 323 | 0.9 | 1.7 | 0.00 | 0.00 | 0.00 | 81 | 1013.6 |
| 20260509092703 | 56 | 321 | 0.9 | 1.7 | 0.00 | 0.00 | 0.00 | 81 | 1013.6 |
| 20260509091803 | 56 | 307 | 0.9 | 2.6 | 0.00 | 0.00 | 0.00 | 81 | 1013.7 |
| 20260509090903 | 56 | 313 | 0.9 | 1.7 | 0.00 | 0.00 | 0.00 | 80 | 1013.7 |
| 20260509090024 | 57 | 316 | 0.9 | 1.7 | 0.00 | 0.00 | 0.00 | 80 | 1013.7 |
| 20260509085403 | 57 | 313 | 0.9 | 1.7 | 0.00 | 0.00 | 0.00 | 80 | 1013.7 |
| 20260509084503 | 57 | 324 | 0.9 | 2.6 | 0.00 | 0.00 | 0.00 | 80 | 1013.7 |
| 20260509083603 | 57 | 328 | 0.9 | 2.6 | 0.00 | 0.00 | 0.00 | 79 | 1013.8 |
| 20260509082703 | 57 | 314 | 0.9 | 1.7 | 0.00 | 0.00 | 0.00 | 79 | 1013.9 |
| 20260509081803 | 58 | 307 | 0.9 | 1.7 | 0.00 | 0.00 | 0.00 | 78 | 1013.7 |
| 20260509080903 | 58 | 311 | 0.9 | 1.7 | 0.00 | 0.00 | 0.00 | 77 | 1013.6 |
| 20260509080024 | 58 | 316 | 0.9 | 1.7 | 0.00 | 0.00 | 0.00 | 77 | 1013.6 |
| 20260509075425 | 58 | 305 | 0.9 | 1.7 | 0.00 | 0.00 | 0.00 | 76 | 1013.6 |
| 20260509074524 | 59 | 313 | 0.9 | 2.6 | 0.00 | 0.00 | 0.00 | 76 | 1013.7 |
| 20260509073603 | 59 | 319 | 0.9 | 2.6 | 0.00 | 0.00 | 0.00 | 75 | 1013.7 |
| 20260509072703 | 60 | 304 | 0.9 | 1.7 | 0.00 | 0.00 | 0.00 | 74 | 1013.7 |
| 20260509071803 | 60 | 303 | 0.9 | 1.7 | 0.00 | 0.00 | 0.00 | 73 | 1013.7 |
| 20260509070903 | 60 | 299 | 0.0 | 1.7 | 0.00 | 0.00 | 0.00 | 72 | 1013.5 |
| 20260509070003 | 60 | 295 | 0.9 | 1.7 | 0.00 | 0.00 | 0.00 | 72 | 1013.5 |
| 20260509065403 | 61 | 285 | 0.9 | 2.6 | 0.00 | 0.00 | 0.00 | 71 | 1013.5 |
| 20260509064503 | 61 | 270 | 0.9 | 3.5 | 0.00 | 0.00 | 0.00 | 71 | 1013.5 |
| 20260509063603 | 61 | 256 | 0.0 | 2.6 | 0.00 | 0.00 | 0.00 | 70 | 1013.5 |
| 20260509062703 | 61 | 277 | 0.0 | 1.7 | 0.00 | 0.00 | 0.00 | 70 | 1013.5 |
| 20260509061803 | 62 | 262 | 0.9 | 2.6 | 0.00 | 0.00 | 0.00 | 70 | 1013.6 |
| 20260509060903 | 62 | 259 | 0.9 | 4.3 | 0.00 | 0.00 | 0.00 | 70 | 1013.5 |
| 20260509060003 | 62 | 253 | 0.9 | 6.1 | 0.00 | 0.00 | 0.00 | 70 | 1013.6 |
| 20260509055403 | 62 | 243 | 0.9 | 5.2 | 0.00 | 0.00 | 0.00 | 70 | 1013.6 |
| 20260509054503 | 62 | 248 | 0.9 | 3.5 | 0.00 | 0.00 | 0.00 | 70 | 1013.7 |
| 20260509053603 | 63 | 246 | 0.9 | 3.5 | 0.00 | 0.00 | 0.00 | 69 | 1013.7 |
| 20260509052703 | 63 | 250 | 0.9 | 2.6 | 0.00 | 0.00 | 0.00 | 68 | 1013.8 |
| 20260509051804 | 64 | 246 | 1.7 | 3.5 | 0.00 | 0.00 | 0.00 | 68 | 1013.8 |
| 20260509050903 | 64 | 247 | 1.7 | 4.3 | 0.00 | 0.00 | 0.00 | 68 | 1013.7 |
| 20260509050003 | 64 | 250 | 1.7 | 3.5 | 0.00 | 0.00 | 0.00 | 68 | 1013.7 |
| 20260509045424 | 64 | 249 | 1.7 | 3.5 | 0.00 | 0.00 | 0.00 | 68 | 1013.7 |
| 20260509044524 | 65 | 252 | 0.9 | 3.5 | 0.00 | 0.00 | 0.00 | 68 | 1013.5 |
| 20260509043624 | 65 | 251 | 1.7 | 5.2 | 0.00 | 0.00 | 0.00 | 67 | 1013.6 |
| 20260509042724 | 66 | 244 | 1.7 | 5.2 | 0.00 | 0.00 | 0.00 | 67 | 1013.6 |
| 20260509041824 | 66 | 246 | 1.7 | 3.5 | 0.00 | 0.00 | 0.00 | 66 | 1013.6 |
| 20260509040924 | 67 | 255 | 1.7 | 3.5 | 0.00 | 0.00 | 0.00 | 65 | 1013.6 |
| 20260509040024 | 67 | 255 | 0.9 | 2.6 | 0.00 | 0.00 | 0.00 | 65 | 1013.4 |
| 20260509035424 | 68 | 256 | 1.7 | 4.3 | 0.00 | 0.00 | 0.00 | 64 | 1013.4 |
| 20260509034524 | 68 | 245 | 1.7 | 4.3 | 0.00 | 0.00 | 0.00 | 63 | 1013.3 |
| 20260509033625 | 69 | 245 | 1.7 | 5.2 | 0.00 | 0.00 | 0.00 | 63 | 1013.3 |
| 20260509032703 | 69 | 245 | 1.7 | 5.2 | 0.00 | 0.00 | 0.00 | 62 | 1013.1 |
| 20260509031803 | 70 | 248 | 1.7 | 4.3 | 0.00 | 0.00 | 0.00 | 60 | 1013.1 |
| 20260509030903 | 71 | 246 | 1.7 | 5.2 | 0.00 | 0.00 | 0.00 | 59 | 1013.1 |
| 20260509030003 | 72 | 249 | 1.7 | 5.2 | 0.00 | 0.00 | 0.00 | 56 | 1013.1 |
| 20260509025405 | 73 | 250 | 1.7 | 5.2 | 0.00 | 0.00 | 0.00 | 55 | 1013.2 |
| 20260509024503 | 74 | 253 | 1.7 | 6.1 | 0.00 | 0.00 | 0.00 | 53 | 1013.0 |
| 20260509023603 | 76 | 250 | 2.6 | 6.1 | 0.00 | 0.00 | 0.00 | 50 | 1012.9 |
| 20260509022703 | 77 | 263 | 2.6 | 7.8 | 0.00 | 0.00 | 0.00 | 50 | 1013.1 |
| 20260509021803 | 78 | 276 | 2.6 | 7.0 | 0.00 | 0.00 | 0.00 | 48 | 1013.1 |
| 20260509020903 | 78 | 275 | 2.6 | 9.6 | 0.00 | 0.00 | 0.00 | 47 | 1013.0 |
| 20260509020003 | 79 | 258 | 2.6 | 11.3 | 0.00 | 0.00 | 0.00 | 45 | 1013.1 |
| 20260509015424 | 80 | 258 | 2.6 | 11.3 | 0.00 | 0.00 | 0.00 | 44 | 1013.0 |
| 20260509014503 | 81 | 258 | 2.6 | 8.7 | 0.00 | 0.00 | 0.00 | 44 | 1013.0 |
| 20260509013603 | 82 | 267 | 3.5 | 8.7 | 0.00 | 0.00 | 0.00 | 41 | 1013.0 |
| 20260509012703 | 84 | 281 | 2.6 | 7.8 | 0.00 | 0.00 | 0.00 | 41 | 1013.0 |
| 20260509011803 | 85 | 280 | 3.5 | 10.4 | 0.00 | 0.00 | 0.00 | 40 | 1013.0 |
| 20260509010903 | 85 | 284 | 3.5 | 9.6 | 0.00 | 0.00 | 0.00 | 40 | 1012.9 |
| 20260509010003 | 86 | 299 | 2.6 | 8.7 | 0.00 | 0.00 | 0.00 | 41 | 1012.9 |
| 20260509005424 | 85 | 313 | 3.5 | 8.7 | 0.00 | 0.00 | 0.00 | 42 | 1013.1 |
| 20260509004524 | 85 | 321 | 4.3 | 9.6 | 0.00 | 0.00 | 0.00 | 47 | 1013.1 |
| 20260509003603 | 85 | 319 | 4.3 | 9.6 | 0.00 | 0.00 | 0.00 | 47 | 1013.1 |
| 20260509002704 | 85 | 325 | 5.2 | 8.7 | 0.00 | 0.00 | 0.00 | 47 | 1013.1 |
| 20260509001824 | 86 | 325 | 4.3 | 9.6 | 0.00 | 0.00 | 0.00 | 47 | 1013.1 |
| 20260509000903 | 86 | 311 | 4.3 | 9.6 | 0.00 | 0.00 | 0.00 | 48 | 1013.1 |
| 20260509000003 | 86 | 314 | 4.3 | 12.2 | 0.00 | 0.00 | 0.00 | 47 | 1013.1 |
| 20260508235403 | 85 | 320 | 5.2 | 12.2 | 0.00 | 0.00 | 0.00 | 46 | 1013.2 |
| 20260508234503 | 85 | 324 | 4.3 | 8.7 | 0.00 | 0.00 | 0.00 | 48 | 1013.4 |
| 20260508233604 | 85 | 314 | 4.3 | 8.7 | 0.00 | 0.00 | 0.00 | 48 | 1013.5 |
| 20260508232703 | 85 | 314 | 4.3 | 8.7 | 0.00 | 0.00 | 0.00 | 49 | 1013.6 |
| 20260508231803 | 85 | 324 | 4.3 | 11.3 | 0.00 | 0.00 | 0.00 | 50 | 1013.6 |
| 20260508230924 | 84 | 306 | 4.3 | 11.3 | 0.00 | 0.00 | 0.00 | 49 | 1013.7 |
| 20260508230024 | 84 | 317 | 5.2 | 10.4 | 0.00 | 0.00 | 0.00 | 49 | 1014.0 |
| 20260508225424 | 84 | 315 | 5.2 | 9.6 | 0.00 | 0.00 | 0.00 | 49 | 1014.1 |
| 20260508224524 | 84 | 324 | 4.3 | 10.4 | 0.00 | 0.00 | 0.00 | 49 | 1014.2 |
| 20260508223624 | 85 | 323 | 5.2 | 12.2 | 0.00 | 0.00 | 0.00 | 48 | 1014.3 |
| 20260508222724 | 85 | 318 | 4.3 | 11.3 | 0.00 | 0.00 | 0.00 | 49 | 1014.4 |
| 20260508221803 | 84 | 321 | 5.2 | 10.4 | 0.00 | 0.00 | 0.00 | 46 | 1014.4 |
| 20260508220903 | 84 | 325 | 4.3 | 9.6 | 0.00 | 0.00 | 0.00 | 48 | 1014.5 |
| 20260508220003 | 84 | 324 | 4.3 | 9.6 | 0.00 | 0.00 | 0.00 | 49 | 1014.7 |
| 20260508215403 | 84 | 320 | 4.3 | 10.4 | 0.00 | 0.00 | 0.00 | 49 | 1014.7 |
| 20260508214503 | 83 | 323 | 5.2 | 10.4 | 0.00 | 0.00 | 0.00 | 48 | 1014.8 |
| 20260508213603 | 83 | 318 | 4.3 | 9.6 | 0.00 | 0.00 | 0.00 | 47 | 1015.0 |
| 20260508212703 | 83 | 307 | 4.3 | 9.6 | 0.00 | 0.00 | 0.00 | 48 | 1015.2 |
| 20260508211803 | 82 | 313 | 3.5 | 9.6 | 0.00 | 0.00 | 0.00 | 48 | 1015.2 |
| 20260508210924 | 82 | 320 | 4.3 | 9.6 | 0.00 | 0.00 | 0.00 | 48 | 1015.2 |
| 20260508210024 | 82 | 315 | 4.3 | 9.6 | 0.00 | 0.00 | 0.00 | 50 | 1015.3 |
| 20260508205424 | 82 | 318 | 4.3 | 9.6 | 0.00 | 0.00 | 0.00 | 49 | 1015.4 |
| 20260508204524 | 81 | 319 | 5.2 | 9.6 | 0.00 | 0.00 | 0.00 | 49 | 1015.5 |
| 20260508203624 | 81 | 317 | 4.3 | 10.4 | 0.00 | 0.00 | 0.00 | 49 | 1015.7 |
| 20260508202703 | 80 | 309 | 4.3 | 8.7 | 0.00 | 0.00 | 0.00 | 50 | 1015.8 |
| 20260508201803 | 80 | 308 | 4.3 | 8.7 | 0.00 | 0.00 | 0.00 | 51 | 1015.9 |
| 20260508200903 | 79 | 324 | 3.5 | 8.7 | 0.00 | 0.00 | 0.00 | 53 | 1015.9 |
| 20260508200003 | 78 | 313 | 4.3 | 12.2 | 0.00 | 0.00 | 0.00 | 52 | 1015.9 |
| 20260508195403 | 78 | 321 | 4.3 | 12.2 | 0.00 | 0.00 | 0.00 | 52 | 1016.0 |
| 20260508194503 | 78 | 313 | 3.5 | 10.4 | 0.00 | 0.00 | 0.00 | 50 | 1016.1 |
| 20260508193603 | 78 | 306 | 3.5 | 7.0 | 0.00 | 0.00 | 0.00 | 50 | 1016.2 |
| 20260508192703 | 77 | 331 | 5.2 | 10.4 | 0.00 | 0.00 | 0.00 | 51 | 1016.2 |
| 20260508191803 | 77 | 293 | 3.5 | 7.0 | 0.00 | 0.00 | 0.00 | 51 | 1016.5 |
| 20260508190903 | 77 | 320 | 4.3 | 10.4 | 0.00 | 0.00 | 0.00 | 49 | 1016.5 |
| 20260508190003 | 76 | 305 | 3.5 | 7.8 | 0.00 | 0.00 | 0.00 | 51 | 1016.5 |
| 20260508185403 | 76 | 306 | 3.5 | 7.8 | 0.00 | 0.00 | 0.00 | 51 | 1016.6 |
| 20260508184503 | 75 | 298 | 3.5 | 7.8 | 0.00 | 0.00 | 0.00 | 52 | 1016.7 |
| 20260508183603 | 74 | 288 | 2.6 | 7.8 | 0.00 | 0.00 | 0.00 | 53 | 1016.6 |
| 20260508182703 | 74 | 276 | 2.6 | 7.0 | 0.00 | 0.00 | 0.00 | 52 | 1016.7 |
| 20260508181803 | 73 | 282 | 3.5 | 7.8 | 0.00 | 0.00 | 0.00 | 52 | 1016.7 |
| 20260508180903 | 72 | 269 | 1.7 | 6.1 | 0.00 | 0.00 | 0.00 | 53 | 1016.8 |
| 20260508180003 | 72 | 295 | 3.5 | 7.8 | 0.00 | 0.00 | 0.00 | 52 | 1016.8 |
| 20260508175403 | 72 | 300 | 2.6 | 7.8 | 0.00 | 0.00 | 0.00 | 54 | 1016.8 |
| 20260508174503 | 72 | 298 | 2.6 | 7.0 | 0.00 | 0.00 | 0.00 | 55 | 1017.0 |
| 20260508173603 | 71 | 275 | 2.6 | 7.0 | 0.00 | 0.00 | 0.00 | 53 | 1017.1 |
| 20260508172724 | 71 | 296 | 3.5 | 7.8 | 0.00 | 0.00 | 0.00 | 56 | 1017.1 |
| 20260508171824 | 70 | 297 | 3.5 | 7.0 | 0.00 | 0.00 | 0.00 | 56 | 1017.1 |
| 20260508170924 | 70 | 320 | 3.5 | 7.8 | 0.00 | 0.00 | 0.00 | 57 | 1017.1 |
| 20260508170024 | 69 | 320 | 4.3 | 8.7 | 0.00 | 0.00 | 0.00 | 59 | 1017.1 |
| 20260508165424 | 68 | 312 | 3.5 | 8.7 | 0.00 | 0.00 | 0.00 | 60 | 1017.1 |
| 20260508164524 | 68 | 293 | 3.5 | 7.0 | 0.00 | 0.00 | 0.00 | 61 | 1017.2 |
| 20260508163624 | 67 | 295 | 3.5 | 8.7 | 0.00 | 0.00 | 0.00 | 62 | 1017.1 |
| 20260508162724 | 66 | 294 | 3.5 | 8.7 | 0.00 | 0.00 | 0.00 | 64 | 1017.2 |
| 20260508161824 | 65 | 297 | 3.5 | 9.6 | 0.00 | 0.00 | 0.00 | 66 | 1017.2 |
| 20260508160925 | 64 | 280 | 2.6 | 7.0 | 0.00 | 0.00 | 0.00 | 68 | 1017.2 |
| 20260508160003 | 63 | 250 | 1.7 | 7.0 | 0.00 | 0.00 | 0.00 | 68 | 1017.2 |
| 20260508155404 | 63 | 285 | 2.6 | 7.8 | 0.00 | 0.00 | 0.00 | 68 | 1017.2 |
| 20260508154503 | 62 | 302 | 2.6 | 8.7 | 0.00 | 0.00 | 0.00 | 71 | 1017.2 |
| 20260508153603 | 62 | 274 | 3.5 | 8.7 | 0.00 | 0.00 | 0.00 | 72 | 1017.2 |
| 20260508152704 | 61 | 285 | 2.6 | 8.7 | 0.00 | 0.00 | 0.00 | 74 | 1017.4 |
| 20260508151803 | 60 | 278 | 2.6 | 7.8 | 0.00 | 0.00 | 0.00 | 76 | 1017.3 |
| 20260508150924 | 60 | 283 | 2.6 | 7.8 | 0.00 | 0.00 | 0.00 | 78 | 1017.2 |
| 20260508150004 | 59 | 279 | 2.6 | 9.6 | 0.00 | 0.00 | 0.00 | 80 | 1017.1 |
| 20260508145403 | 58 | 281 | 2.6 | 6.1 | 0.00 | 0.00 | 0.00 | 81 | 1017.1 |
| 20260508144503 | 57 | 303 | 2.6 | 8.7 | 0.00 | 0.00 | 0.00 | 82 | 1017.0 |
| 20260508143603 | 57 | 281 | 1.7 | 6.1 | 0.00 | 0.00 | 0.00 | 84 | 1017.0 |
| 20260508142703 | 56 | 299 | 2.6 | 7.0 | 0.00 | 0.00 | 0.00 | 85 | 1016.8 |
| 20260508141803 | 55 | 292 | 1.7 | 5.2 | 0.00 | 0.00 | 0.00 | 86 | 1016.7 |
| 20260508140903 | 54 | 329 | 1.7 | 4.3 | 0.00 | 0.00 | 0.00 | 87 | 1016.7 |
| 20260508140003 | 53 | 325 | 1.7 | 4.3 | 0.00 | 0.00 | 0.00 | 88 | 1016.5 |
| 20260508135424 | 53 | 314 | 1.7 | 4.3 | 0.00 | 0.00 | 0.00 | 88 | 1016.5 |
| 20260508134503 | 52 | 316 | 0.9 | 2.6 | 0.00 | 0.00 | 0.00 | 88 | 1016.3 |
| 20260508133603 | 52 | 312 | 0.9 | 1.7 | 0.00 | 0.00 | 0.00 | 88 | 1016.4 |
| 20260508132703 | 52 | 305 | 0.9 | 1.7 | 0.00 | 0.00 | 0.00 | 88 | 1016.3 |
| 20260508131803 | 52 | 287 | 0.9 | 1.7 | 0.00 | 0.00 | 0.00 | 88 | 1016.2 |
| 20260508130903 | 52 | 301 | 0.9 | 1.7 | 0.00 | 0.00 | 0.00 | 87 | 1016.2 |
| 20260508130003 | 52 | 306 | 0.9 | 2.6 | 0.00 | 0.00 | 0.00 | 87 | 1016.3 |
| 20260508125424 | 52 | 311 | 0.9 | 1.7 | 0.00 | 0.00 | 0.00 | 87 | 1016.3 |
| 20260508124503 | 52 | 314 | 1.7 | 4.3 | 0.00 | 0.00 | 0.00 | 87 | 1016.3 |
| 20260508123624 | 52 | 293 | 1.7 | 5.2 | 0.00 | 0.00 | 0.00 | 88 | 1016.4 |
| 20260508122724 | 52 | 301 | 0.9 | 3.5 | 0.00 | 0.00 | 0.00 | 88 | 1016.4 |
| 20260508121824 | 52 | 323 | 0.9 | 2.6 | 0.00 | 0.00 | 0.00 | 88 | 1016.1 |
| 20260508120924 | 52 | 311 | 0.0 | 1.7 | 0.00 | 0.00 | 0.00 | 87 | 1016.0 |
| 20260508120024 | 52 | 307 | 0.9 | 1.7 | 0.00 | 0.00 | 0.00 | 87 | 1015.9 |
| 20260508115403 | 52 | 316 | 0.9 | 2.6 | 0.00 | 0.00 | 0.00 | 87 | 1016.0 |
| 20260508114503 | 53 | 306 | 0.9 | 2.6 | 0.00 | 0.00 | 0.00 | 87 | 1016.0 |
| 20260508113603 | 53 | 310 | 0.9 | 2.6 | 0.00 | 0.00 | 0.00 | 87 | 1016.0 |
| 20260508112703 | 53 | 311 | 0.9 | 2.6 | 0.00 | 0.00 | 0.00 | 87 | 1015.9 |
| 20260508111803 | 53 | 300 | 0.9 | 3.5 | 0.00 | 0.00 | 0.00 | 87 | 1015.9 |